Home   Weather   Amberg   Past weeks

Flag for Germany Past Weather in Amberg, Bavaria, Germany — Yesterday and Last 2 Weeks

Now
55 °F

Overcast.


Feels Like: 53 °F
Forecast: 55 / 58 °F
Wind: 9 mph from West

Location: Hohenfels

Current Time: Jul 25, 2017 at 10:59:12 am

Latest Report: Jul 25, 2017 at 9:58 am


Visibility: N/A

Pressure: 29.75 "Hg

Humidity: 82%

Dew Point: 50 °F

Location of AmbergLocation

Past Weather in Amberg — Graph

°F

Amberg Temperature Yesterday

Maximum temperature yesterday: 64 °F (at 9:58 am)
Minimum temperature yesterday: 50 °F (at 4:58 am)
Average temperature yesterday: 59 °F

High & Low Weather Summary for the Past Weeks

 TemperatureHumidityPressure
High90 °F (Jul 19, 4:58 pm)100% (Jul 11, 3:58 am)30.30 "Hg (Jul 11, 3:58 am)
Low46 °F (Jul 16, 2:58 am)29% (Jul 19, 5:58 pm)29.75 "Hg (Jul 24, 1:11 pm)
Average65 °F73%29.99 "Hg
* Reported Jul 10 8:58 am — Jul 25 8:58 am, Amberg. Weather by CustomWeather, © 2017

Note: Actual official high and low records may vary slightly from our data, if they occured in-between our weather recording intervals... More about our weather records

Advertising

Amberg Weather History for the Previous 24 Hours

Scroll right to see more
 ConditionsComfort  
Time TempWeatherWind HumidityBarometerVisibility
8:58 am
Tue, Jul 25
55 °FMostly cloudy.7 mph82%29.76 "HgN/A
7:58 am55 °FMostly cloudy.6 mph82%29.77 "HgN/A
7:27 am55 °FMostly cloudy.7 mph82%29.77 "HgN/A
6:58 am55 °FOvercast.5 mph82%29.75 "HgN/A
6:15 am54 °FOvercast.6 mph88%29.76 "HgN/A
5:58 am54 °FMostly cloudy.6 mph88%29.77 "HgN/A
5:42 am54 °FMostly cloudy.7 mph88%29.77 "HgN/A
4:58 am54 °FOvercast.10 mph88%29.78 "HgN/A
4:04 am54 °FPassing clouds.3 mph88%29.78 "HgN/A
3:36 am54 °FOvercast.5 mph88%29.79 "HgN/A
2:58 am54 °FOvercast.3 mph88%29.79 "HgN/A
1:58 am54 °FPassing clouds.7 mph88%29.80 "HgN/A
1:27 am54 °FPartly cloudy.3 mph94%29.80 "HgN/A
12:58 am54 °FPassing clouds.3 mph94%29.80 "HgN/A
11:58 pm
Mon, Jul 24
55 °FClear.3 mph82%29.81 "HgN/A
10:58 pm55 °FPassing clouds.No wind82%29.80 "HgN/A
9:58 pm59 °FPassing clouds.7 mph72%29.80 "HgN/A
8:58 pm59 °FBroken clouds.3 mph82%29.79 "HgN/A
7:58 pm63 °FMostly cloudy.No wind73%29.78 "HgN/A
6:58 pm61 °FPartly sunny.3 mph77%29.78 "HgN/A
5:58 pm61 °FBroken clouds.6 mph77%29.78 "HgN/A
4:58 pm59 °FPassing clouds.8 mph82%29.80 "HgN/A
3:58 pm59 °FScattered clouds.14 mph82%29.79 "HgN/A
3:38 pm59 °FBroken clouds.15 mph88%29.79 "HgN/A
3:02 pm61 °FLight rain. Fog.13 mph88%29.77 "HgN/A
2:37 pm63 °FHeavy rain. Fog.No wind94%29.75 "Hg2 mi
2:00 pm64 °FLight rain. Mostly cloudy.6 mph83%29.76 "HgN/A
1:11 pm64 °FPartly sunny.6 mph83%29.75 "HgN/A
11:58 am64 °FOvercast.No wind78%29.78 "HgN/A
11:37 am64 °FPartly sunny.7 mph78%29.78 "HgN/A
11:06 am64 °FLight rain. Mostly cloudy.3 mph78%29.78 "HgN/A
10:58 am64 °FMostly cloudy.5 mph78%29.78 "HgN/A
Weather by CustomWeather, © 2017

See weather overviewHow to use our weather pages